Station BLTM3 - 8447387 - Borden Flats Light at Fall River, MA Image indicating link to RSS feed of recent meteorological observations for station BLTM3


Conditions at BLTM3 as of
(8:48 pm EDT on 05/23/2024)
0048 GMT on 05/24/2024:
     

Click on the graph icon in the table below to see a time series plot of the last five days of that observation.

5-day plot - Wind Direction Wind Direction (WDIR): SW ( 230 deg true )
5-day plot - Wind Speed Wind Speed (WSPD): 7.0 kts
5-day plot - Wind Gust Wind Gust (GST): 8.0 kts
5-day plot - Atmospheric Pressure Atmospheric Pressure (PRES):29.80 in
5-day plot - Air Temperature Air Temperature (ATMP): 66.9 °F
5-day plot - Wind Speed at 10 Meters Wind Speed at 10 meters (WSPD10M): 7.8 kts
5-day plot - Wind Speed at 20 Meters Wind Speed at 20 meters (WSPD20M): 7.8 kts
5-day plot -  Wind Speed, Wind Gust and Atmospheric Pressure Combined plot of Wind Speed, Gust, and Air Pressure
NOS Water Level Observation Network Water Level
Previous observations
TIME
(EDT)
5-day plot - Wind Direction
WDIR
 
5-day plot - Wind Speed
WSPD
kts
5-day plot - Wind Gust
GST
kts
5-day plot - Wave Height
WVHT
ft
5-day plot - Dominant Wave Period
DPD
sec
5-day plot - Average Wave Period
APD
sec
5-day plot - Mean Wave Direction
MWD
 
5-day plot - Atmospheric Pressure
PRES
in
5-day plot - Pressure Tendency
PTDY
in
5-day plot - Air Temperature
ATMP
°F
5-day plot - Water Temperature
WTMP
°F
5-day plot - Dew Point
DEWP
°F
5-day plot - Salinity
SAL
psu
5-day plot - Visibility
VIS
nmi
5-day plot - Tide (above MLLW)
TIDE
ft
2024-05-23 08:42 pm SW 7.0 8.0----29.80- 67.3-----
2024-05-23 08:36 pm SW 7.0 8.9----29.80- 67.5-----
2024-05-23 08:30 pm SW 7.0 8.0----29.80- 67.5-----
2024-05-23 08:24 pm SW 7.0 8.0----29.80- 68.0-----
2024-05-23 08:18 pmSSW 7.0 8.9----29.80- 68.0-----
2024-05-23 08:12 pm SW 7.0 8.9----29.80- 67.6-----
2024-05-23 08:06 pm SW 7.0 8.0----29.81- 67.5-----
2024-05-23 08:00 pm SW 6.0 8.0----29.80-0.01 68.2-----
2024-05-23 07:54 pmSSW 5.1 8.0----29.80- 68.5-----
2024-05-23 07:48 pmSSW 6.0 7.0----29.80- 68.9-----
2024-05-23 07:42 pmSSW 6.0 7.0----29.80- 69.1-----
2024-05-23 07:36 pmSSW 7.0 8.0----29.80- 68.0-----
2024-05-23 07:30 pmSSW 7.0 8.9----29.80- 66.2-----
2024-05-23 07:24 pmSSW 6.0 7.0----29.80- 65.8-----
2024-05-23 07:18 pmSSW 7.0 8.0----29.80- 65.7-----
2024-05-23 07:00 pm SW 7.0 8.0----29.80-0.02 65.3-----
2024-05-23 06:54 pm SW 8.0 8.9----29.80- 65.7-----
2024-05-23 06:48 pm SW 7.0 8.0----29.80- 65.5-----
2024-05-23 06:42 pm SW 7.0 7.0----29.80- 65.3-----
2024-05-23 06:36 pm SW 7.0 7.0----29.80- 65.5-----
2024-05-23 06:30 pm SW 7.0 8.0----29.80- 66.4-----
2024-05-23 06:24 pm SW 7.0 8.0----29.80- 66.7-----
2024-05-23 06:18 pmSSW 6.0 7.0----29.79- 67.3-----
2024-05-23 06:12 pmSSW 6.0 6.0----29.79- 67.5-----
2024-05-23 06:06 pm SW 5.1 5.1----29.79- 68.2-----
2024-05-23 06:00 pm SW 5.1 5.1----29.80-0.03 67.6-----
2024-05-23 05:54 pm SW 5.1 6.0----29.80- 66.4-----
2024-05-23 05:48 pm SW 6.0 6.0----29.80- 67.5-----
2024-05-23 05:42 pm SW 6.0 6.0----29.81- 67.8-----
2024-05-23 05:36 pm SW 5.1 6.0----29.80- 67.8-----
2024-05-23 05:30 pm SW 5.1 5.1----29.80- 68.7-----
2024-05-23 05:24 pm SW 5.1 5.1----29.80- 68.0-----
2024-05-23 05:18 pm SW 4.1 5.1----29.81- 68.0-----
2024-05-23 05:12 pm SW 4.1 5.1----29.80- 68.9-----
2024-05-23 05:06 pm SW 4.1 5.1----29.81- 68.2-----
2024-05-23 05:00 pmSSW 4.1 4.1----29.81+0.00 67.6-----
2024-05-23 04:54 pmSSW 4.1 4.1----29.81- 67.5-----
2024-05-23 04:48 pm SW 4.1 5.1----29.82- 67.5-----
2024-05-23 04:42 pm SW 5.1 5.1----29.82- 66.9-----
2024-05-23 04:36 pmSSW 4.1 5.1----29.82- 66.4-----
2024-05-23 04:30 pm SW 5.1 5.1----29.81- 66.0-----
2024-05-23 04:24 pmWSW 5.1 5.1----29.82- 66.2-----
2024-05-23 04:18 pmWSW 5.1 6.0----29.82- 65.8-----
2024-05-23 04:12 pmWSW 5.1 5.1----29.82- 65.3-----
2024-05-23 04:06 pm W 5.1 6.0----29.81- 64.9-----
2024-05-23 04:00 pm W 6.0 6.0----29.82-0.07 64.9-----
2024-05-23 03:54 pmWSW 5.1 6.0----29.81- 64.4-----
2024-05-23 03:48 pm SW 6.0 7.0----29.81- 64.6-----
2024-05-23 03:42 pmSSW 8.0 8.9----29.80- 64.8-----
2024-05-23 03:36 pm SW 8.0 8.0----29.82- 66.4-----
2024-05-23 03:30 pm SW 6.0 7.0----29.82- 67.3-----
2024-05-23 03:24 pmSSW 5.1 6.0----29.83- 67.6-----
2024-05-23 03:18 pmSSW 6.0 8.9----29.82- 65.7-----
2024-05-23 03:12 pm SW 7.0 8.0----29.83- 65.5-----
2024-05-23 03:06 pmSSW 5.1 8.0----29.83- 67.5-----
2024-05-23 03:00 pmSSW 5.1 6.0----29.83-0.04 67.1-----
2024-05-23 02:54 pmSSW 5.1 6.0----29.83- 67.1-----
2024-05-23 02:48 pm SW 4.1 6.0----29.83- 66.4-----
2024-05-23 02:42 pm S 6.0 8.0----29.82- 65.5-----
2024-05-23 02:36 pm S 4.1 5.1----29.82- 64.4-----
2024-05-23 02:30 pm SW 5.1 6.0----29.82- 64.2-----
2024-05-23 02:24 pm SW 4.1 5.1----29.82- 65.1-----
2024-05-23 02:18 pm SW 4.1 5.1----29.83- 65.8-----
2024-05-23 02:12 pmSSE 1.0 1.9----29.82- 65.8-----
2024-05-23 02:06 pmESE 2.9 5.1----29.81- 65.7-----
2024-05-23 02:00 pm E 6.0 7.0----29.81-0.06 65.5-----
2024-05-23 01:54 pm E 5.1 5.1----29.81- 65.3-----
2024-05-23 01:48 pm S 4.1 4.1----29.84-------
2024-05-23 01:42 pm SW 1.0 1.9----29.85-------
2024-05-23 01:36 pmWSW 4.1 4.1----29.87-------
2024-05-23 01:30 pm SW 4.1 5.1----29.87- 64.9-----
2024-05-23 01:24 pmSSW 5.1 6.0----29.88- 64.8-----
2024-05-23 01:18 pmSSW 6.0 7.0----29.88- 64.6-----
2024-05-23 01:12 pmSSW 4.1 5.1----29.88- 63.9-----
2024-05-23 01:06 pmSSW 5.1 6.0----29.88- 63.7-----
2024-05-23 01:00 pm SW 7.0 8.0----29.89+0.05 63.7-----
2024-05-23 12:54 pmSSW 6.0 7.0----29.89- 63.0-----
2024-05-23 12:48 pmSSW 6.0 8.0----29.88- 63.0-----
2024-05-23 12:42 pmSSW 5.1 6.0----29.88- 62.8-----
2024-05-23 12:36 pm SW 4.1 5.1----29.88- 62.6-----
2024-05-23 12:30 pmWSW 7.0 8.9----29.89- 62.2-----
2024-05-23 12:24 pmSSW 4.1 5.1----29.89- 63.3-----
2024-05-23 12:18 pmSSW 4.1 6.0----29.89- 63.7-----
2024-05-23 12:12 pm S 4.1 5.1----29.87- 64.0-----
2024-05-23 12:06 pmSSE 5.1 6.0----29.87- 64.6-----
2024-05-23 12:00 pm S 5.1 6.0----29.86+0.00 64.9-----
2024-05-23 11:54 amSSW 6.0 7.0----29.86- 65.1-----
2024-05-23 11:48 am S 4.1 5.1----29.86- 64.0-----
2024-05-23 11:42 am- 0.0 1.9----29.85- 63.9-----
2024-05-23 11:36 amESE 1.0 1.9----29.85- 63.9-----
2024-05-23 11:30 amSSW 1.0 4.1----29.85- 63.9-----
2024-05-23 11:24 am SW 1.9 4.1----29.86- 63.3-----
2024-05-23 11:18 am SW 4.1 5.1----29.86- 63.3-----
2024-05-23 11:12 amSSE 6.0 8.0----29.88- 62.4-----
2024-05-23 11:06 am S 7.0 8.9----29.88- 62.4-----
2024-05-23 11:00 amSSW 5.1 7.0----29.87+0.00 62.2-----
2024-05-23 10:54 amSSW 7.0 8.9----29.87- 62.8-----
2024-05-23 10:48 amSSW 15.0 18.1----29.87- 61.7-----
2024-05-23 10:42 am SW 9.9 12.0----29.86- 61.7-----
2024-05-23 10:36 amWSW 8.9 11.1----29.85- 63.0-----
2024-05-23 10:30 amSSE 5.1 7.0----29.84- 66.9-----
2024-05-23 10:24 am S 5.1 7.0----29.84- 65.3-----
2024-05-23 10:18 amSSW 4.1 5.1----29.84- 63.5-----
2024-05-23 10:12 am W 4.1 5.1----29.84- 63.9-----
2024-05-23 10:06 amWSW 2.9 5.1----29.84- 64.9-----
2024-05-23 10:00 amSSE 5.1 6.0----29.84-0.02 66.6-----
2024-05-23 09:54 am S 2.9 5.1----29.84- 66.2-----
2024-05-23 09:48 amSSE 4.1 5.1----29.84- 65.5-----
2024-05-23 09:42 amSSE 5.1 6.0----29.84- 65.3-----
2024-05-23 09:36 am SE 5.1 6.0----29.85- 64.8-----
2024-05-23 09:30 amSSE 5.1 5.1----29.85- 64.8-----
2024-05-23 09:24 am S 5.1 6.0----29.85- 64.6-----
2024-05-23 09:18 amSSE 5.1 6.0----29.85- 63.9-----
2024-05-23 09:12 amSSE 5.1 7.0----29.85- 63.1-----
2024-05-23 09:06 amSSE 5.1 6.0----29.86- 63.1-----
2024-05-23 09:00 am SE 5.1 6.0----29.86-0.01 63.7-----
2024-05-23 08:54 amSSE 5.1 6.0----29.86- 63.5-----
2024-05-23 08:48 amSSE 5.1 6.0----29.86- 63.9-----
2024-05-23 08:42 amESE 5.1 6.0----29.86- 64.2-----
2024-05-23 08:36 am E 2.9 6.0----29.87- 63.1-----
2024-05-23 08:30 amSSE 5.1 5.1----29.87- 61.0-----
2024-05-23 08:24 am SW 4.1 5.1----29.88- 60.8-----
2024-05-23 08:18 am SW 5.1 5.1----29.87- 61.0-----
2024-05-23 08:12 am SW 5.1 6.0----29.88- 61.3-----
2024-05-23 08:06 am SW 5.1 6.0----29.88- 61.3-----
2024-05-23 08:00 am SW 5.1 7.0----29.87+0.00 61.0-----
2024-05-23 07:54 am SW 5.1 5.1----29.87- 60.8-----
2024-05-23 07:48 amWSW 5.1 6.0----29.88- 60.6-----
2024-05-23 07:42 am SW 6.0 7.0----29.87- 61.0-----
2024-05-23 07:36 am W 6.0 8.0----29.88- 61.2-----
2024-05-23 07:30 amWSW 5.1 7.0----29.86- 62.6-----
2024-05-23 07:24 am SW 4.1 5.1----29.85- 63.1-----
2024-05-23 07:18 am SW 4.1 5.1----29.85- 63.0-----
2024-05-23 07:12 am SW 4.1 5.1----29.85- 62.6-----
2024-05-23 07:06 am SW 5.1 6.0----29.86- 63.0-----
2024-05-23 07:00 amSSW 4.1 5.1----29.85-0.02 62.8-----
2024-05-23 06:54 amSSW 4.1 5.1----29.86- 62.2-----
2024-05-23 06:48 amSSW 4.1 6.0----29.86- 61.7-----
2024-05-23 06:42 am SW 4.1 5.1----29.86- 61.5-----
2024-05-23 06:36 am SW 4.1 5.1----29.87- 61.7-----
2024-05-23 06:30 amSSW 4.1 5.1----29.87- 61.5-----
2024-05-23 06:24 amSSW 4.1 5.1----29.87- 61.3-----
2024-05-23 06:18 am SW 5.1 6.0----29.87- 61.2-----
2024-05-23 06:12 amSSW 4.1 5.1----29.87- 61.3-----
2024-05-23 06:06 amSSW 1.9 4.1----29.87- 61.2-----
2024-05-23 06:00 am S 2.9 5.1----29.87-0.01 61.2-----
2024-05-23 05:54 am S 2.9 4.1----29.87- 61.0-----
2024-05-23 05:48 amSSW 4.1 5.1----29.87- 61.0-----
2024-05-23 05:42 am S 4.1 5.1----29.86- 60.8-----
2024-05-23 05:36 am S 4.1 5.1----29.87- 60.8-----
2024-05-23 05:30 amSSW 4.1 5.1----29.86- 60.8-----
2024-05-23 05:24 amSSW 4.1 5.1----29.86- 60.8-----
2024-05-23 05:18 am S 5.1 8.0----29.86- 61.0-----
2024-05-23 05:12 am S 4.1 6.0----29.86- 61.2-----
2024-05-23 05:06 am S 5.1 6.0----29.86- 61.3-----
2024-05-23 05:00 amSSW 5.1 7.0----29.87-0.01 61.3-----
2024-05-23 04:54 amSSW 4.1 6.0----29.87- 61.5-----
2024-05-23 04:48 amSSW 4.1 5.1----29.87- 61.5-----
2024-05-23 04:42 amSSW 4.1 5.1----29.87- 61.3-----
2024-05-23 04:36 amSSW 2.9 5.1----29.87- 61.3-----
2024-05-23 04:30 am S 4.1 5.1----29.87- 61.7-----
2024-05-23 04:24 am S 4.1 5.1----29.87- 61.7-----
2024-05-23 04:18 amSSW 4.1 5.1----29.87- 61.7-----
2024-05-23 04:12 amSSW 4.1 5.1----29.87- 61.7-----
2024-05-23 04:06 amSSW 4.1 5.1----29.87- 61.5-----
2024-05-23 04:00 amSSW 4.1 5.1----29.87-0.03 61.3-----
2024-05-23 03:54 amSSW 5.1 6.0----29.88- 61.2-----
2024-05-23 03:48 amSSW 5.1 7.0----29.88- 61.3-----
2024-05-23 03:42 amSSW 5.1 7.0----29.88- 61.3-----
2024-05-23 03:36 amSSW 5.1 6.0----29.88- 61.3-----
2024-05-23 03:30 amSSW 4.1 6.0----29.88- 61.5-----
2024-05-23 03:24 amSSW 5.1 6.0----29.87- 61.7-----
2024-05-23 03:18 amSSW 5.1 7.0----29.87- 61.7-----
2024-05-23 03:12 amSSW 5.1 7.0----29.88- 61.5-----
2024-05-23 03:06 amSSW 4.1 5.1----29.88- 61.7-----
2024-05-23 03:00 amSSW 5.1 6.0----29.88-0.01 61.9-----
2024-05-23 02:54 amSSW 5.1 7.0----29.88- 61.9-----
2024-05-23 02:48 amSSW 6.0 8.0----29.88- 61.9-----
2024-05-23 02:42 amSSW 5.1 8.0----29.88- 62.1-----
2024-05-23 02:36 amSSW 6.0 7.0----29.88- 62.2-----
2024-05-23 02:30 amSSW 6.0 8.0----29.88- 62.1-----
2024-05-23 02:24 amSSW 6.0 7.0----29.88- 62.1-----
2024-05-23 02:18 amSSW 5.1 7.0----29.88- 61.9-----
2024-05-23 02:12 amSSW 5.1 7.0----29.88- 61.9-----
2024-05-23 02:06 amSSW 6.0 7.0----29.88- 61.5-----
2024-05-23 02:00 amSSW 6.0 8.0----29.88-0.02------
2024-05-23 01:54 amSSW 6.0 7.0----29.88-------
2024-05-23 01:48 amSSW 6.0 8.0----29.88- 62.2-----
2024-05-23 01:42 amSSW 6.0 8.0----29.88- 62.4-----
2024-05-23 01:36 amSSW 6.0 8.0----29.89- 62.6-----
2024-05-23 01:30 amSSW 5.1 7.0----29.89- 62.4-----
2024-05-23 01:24 amSSW 6.0 7.0----29.89- 62.2-----
2024-05-23 01:18 amSSW 6.0 8.0----29.90- 61.9-----
2024-05-23 01:12 am SW 6.0 7.0----29.90- 61.9-----
2024-05-23 01:06 am SW 6.0 7.0----29.90- 61.7-----
2024-05-23 01:00 am SW 6.0 8.0----29.90-0.02 61.9-----
2024-05-23 12:54 am SW 5.1 6.0----29.90- 62.2-----
2024-05-23 12:48 amSSW 6.0 8.0----29.89- 62.1-----
2024-05-23 12:42 amSSW 6.0 7.0----29.89- 61.9-----
2024-05-23 12:36 amSSW 6.0 8.9----29.90- 61.9-----
2024-05-23 12:30 amSSW 6.0 7.0----29.89- 61.9-----
2024-05-23 12:24 amSSW 6.0 8.0----29.90- 61.7-----
2024-05-23 12:18 amSSW 5.1 7.0----29.89- 61.7-----
2024-05-23 12:12 amSSW 6.0 8.0----29.89- 61.7-----
2024-05-23 12:06 am SW 7.0 8.9----29.89- 61.9-----
2024-05-23 12:00 amSSW 6.0 8.0----29.89-0.02 62.1-----
2024-05-22 11:54 pmSSW 6.0 8.0----29.89- 62.2-----
2024-05-22 11:48 pmSSW 7.0 8.0----29.89- 62.2-----
2024-05-22 11:42 pmSSW 7.0 8.0----29.90- 62.1-----
2024-05-22 11:36 pmSSW 6.0 8.0----29.90- 62.1-----
2024-05-22 11:30 pmSSW 6.0 8.0----29.90- 61.7-----
2024-05-22 11:24 pmSSW 6.0 7.0----29.90- 61.7-----
2024-05-22 11:18 pm SW 7.0 8.0----29.90- 61.9-----
2024-05-22 11:12 pmSSW 6.0 8.0----29.90- 62.1-----
2024-05-22 11:06 pmSSW 7.0 8.0----29.90- 62.1-----
2024-05-22 11:00 pmSSW 7.0 8.9----29.90+0.00 62.2-----
2024-05-22 10:54 pmSSW 6.0 8.0----29.90- 62.1-----
2024-05-22 10:48 pmSSW 7.0 8.9----29.90- 62.1-----
2024-05-22 10:42 pmSSW 7.0 8.0----29.90- 62.1-----
2024-05-22 10:36 pmSSW 7.0 8.9----29.90- 62.2-----
2024-05-22 10:30 pmSSW 6.0 8.0----29.91- 62.1-----
2024-05-22 10:24 pmSSW 6.0 8.0----29.91- 62.1-----
2024-05-22 10:18 pmSSW 6.0 8.9----29.91- 62.2-----
2024-05-22 10:12 pmSSW 8.0 9.9----29.91- 62.4-----
2024-05-22 10:06 pm SW 7.0 8.0----29.92- 62.6-----
2024-05-22 10:00 pmSSW 7.0 8.9----29.92+0.01 62.8-----
2024-05-22 09:54 pmSSW 8.0 8.9----29.92- 63.0-----
2024-05-22 09:48 pm SW 8.0 8.9----29.91- 63.0-----
2024-05-22 09:42 pm SW 8.0 11.1----29.91- 62.8-----
2024-05-22 09:36 pm SW 8.0 9.9----29.92- 62.8-----
2024-05-22 09:30 pm SW 8.0 9.9----29.91- 63.5-----
2024-05-22 09:24 pmSSW 6.0 8.0----29.91- 63.3-----
2024-05-22 09:18 pmSSW 5.1 8.9----29.91- 64.4-----
2024-05-22 09:12 pmSSW 6.0 8.0----29.91- 64.6-----
2024-05-22 09:06 pmSSW 5.1 7.0----29.91- 64.8-----
2024-05-22 09:00 pmSSW 5.1 7.0----29.91+0.01 64.8-----
2024-05-22 08:54 pmSSW 4.1 6.0----29.91- 64.6-----